Regional Weather Roundup
Issued by NWS Little Rock, AR

Home | Current Version | Previous Version | Graphics & Text | Print | Product List | Glossary On
Versions: 1 2 3 4 5 6 7 8 9 10 11 12 13 14 15 16 17 18 19 20 21 22 23 24 25 26 27 28 29 30 31 32 33 34 35 36 37 38 39 40 41 42 43 44 45 46 47 48 49 50
000
ASUS44 KLZK 201505
RWRLZK

WEATHER ROUNDUP FOR ARKANSAS
NATIONAL WEATHER SERVICE LITTLE ROCK AR
1000 AM CDT SAT SEP 20 2014

NOTE: "FAIR" INDICATES FEW OR NO CLOUDS BELOW 12,000 FEET WITH NO
SIGNIFICANT WEATHER AND/OR OBSTRUCTIONS TO VISIBILITY.

ARZ001-003-010-029-201600-
NORTHWEST ARKANSAS

CITY           SKY/WX    TMP DP  RH WIND       PRES   REMARKS
FAYETTEVILLE   MOSUNNY   76  70  82 S12       30.09S
FORT SMITH     PTSUNNY   77  69  76 NE7       30.07R
HARRISON       MOSUNNY   75  70  84 S7        30.11R
BENTONVILLE    MOSUNNY   75  68  78 S7        30.10R
ROGERS         PTSUNNY   75  68  78 S10       30.11R
SILOAM SPGS    CLOUDY    73  66  78 S10       30.10R
HIGHFILL       MOSUNNY   74  69  85 S12       30.09R
SPRINGDALE     MOSUNNY   75  68  78 S9        30.12R
$$

ARZ004-005-016-201600-
NORTH CENTRAL ARKANSAS

CITY           SKY/WX    TMP DP  RH WIND       PRES   REMARKS
BATESVILLE     SUNNY     79  70  73 S3        30.09R
FLIPPIN        SUNNY     70  64  83 CALM      30.10R
MTN HOME       SUNNY     75  68  78 S6        30.09R
$$

ARZ040-041-201600-
WEST CENTRAL ARKANSAS

CITY           SKY/WX    TMP DP  RH WIND       PRES   REMARKS
MENA           PTSUNNY   73  72  94 CALM      30.10R
MOUNT IDA      CLOUDY    70  69  97 CALM      30.07R FOG
$$

ARZ009-017-025-026-028-201600-
NORTHEAST ARKANSAS

CITY           SKY/WX    TMP DP  RH WIND       PRES   REMARKS
CORNING        LGT RAIN  75  70  83 CALM      30.09S
JONESBORO      SUNNY     77  69  76 S6        30.09R
NEWPORT        SUNNY     78  70  76 E3        30.10R
WALNUT RIDGE   SUNNY     75  64  69 SW5       30.08S
BLYTHEVILLE    SUNNY     78  70  76 S8        30.09R
$$

ARZ022-023-033-042-044-201600-
CENTRAL ARKANSAS

CITY           SKY/WX    TMP DP  RH WIND       PRES   REMARKS
LITTLE ROCK    SUNNY     81  66  60 SE3       30.07R
N LITTLE ROCK  SUNNY     80  69  68 S5        30.07R
JACKSONVILLE   SUNNY     79  69  71 CALM      30.07S
SEARCY         SUNNY     80  68  67 S5        30.09R
HOT SPRINGS    SUNNY     78  69  73 SE3       30.08R
RUSSELLVILLE   SUNNY     78  70  76 CALM      30.08R
CLINTON        FAIR      73  70  88 CALM      30.10S
$$

ARZ036-201600-
EAST ARKANSAS

CITY           SKY/WX    TMP DP  RH WIND       PRES   REMARKS
WEST MEMPHIS     N/A     79  70  74 S12       30.08R
$$

ARZ050-053-066-070-073-201600-
SOUTHWEST ARKANSAS

CITY           SKY/WX    TMP DP  RH WIND       PRES   REMARKS
ARKADELPHIA    FAIR      79  71  76 CALM      30.07R
CAMDEN         LGT RAIN  81  68  65 CALM      30.06R
TEXARKANA      SUNNY     78  73  84 CALM      30.06R
EL DORADO      SUNNY     82  70  66 CALM      30.06R HX  86
DE QUEEN       SUNNY     79  71  76 E5        30.04R
$$

ARZ056-057-069-201600-
SOUTHEAST ARKANSAS

CITY           SKY/WX    TMP DP  RH WIND       PRES   REMARKS
PINE BLUFF     SUNNY     79  69  71 VRB3      30.07R
STUTTGART      SUNNY     79  70  73 SE5       30.08R
MONTICELLO     SUNNY     80  68  66 CALM      30.06R

$$




USA.gov is the U.S. government's official web portal to all federal, state and local government web resources and services.